Location: Unspecified
(49.2170°N, 0.0000°E)
Time: 12:57:39
(UTC+00:00)

Vanguard 1 - Pass Details

Date: 24 June 2021
Orbit: 651 x 3832 km, 34.2° (Epoch: 23 July)

Event Time Altitude Azimuth Distance (km) Brightness Sun altitude
Rises 01:34:28 0° 276° (W) 7,666 14.5 -14.5°
Reaches altitude 10° 01:41:10 10° 267° (W) 6,263 13.9 -14.1°
Maximum altitude 01:54:56 28° 219° (SW) 3,823 12.5 -13.2°
Drops below altitude 10° 02:04:02 10° 166° (SSE) 4,051 12.8 -12.5°
Sets 02:07:16 0° 154° (SSE) 4,641 13.2 -12.2°
